Weather History for Galesburg, IL

Change the Weather History Date:

Sunday, April 7, 2013

  Actual Average Record
Temperature  
Mean Temperature 52 °F -  
Max Temperature 68 °F 60 °F 80 °F (1986)
Min Temperature 36 °F 35 °F 13 °F (1982)
Degree Days  
Heating Degree Days 13    
Growing Degree Days 2 (Base 50)    
Moisture  
Dew Point 40 °F    
Average Humidity 67    
Maximum Humidity 100    
Minimum Humidity 35    
Precipitation  
Precipitation 0.07 in - - ()
Sea Level Pressure  
Sea Level Pressure 29.87 in    
Wind  
Wind Speed 7 mph (NNW)    
Max Wind Speed 14 mph    
Max Gust Speed 20 mph    
Visibility 8 miles    
Events      
Averages and records for this station are not official NWS values.
T = Trace of Precipitation, MM = Missing Value Source: NWS Daily Summary

Daily Weather History Graph

Daily Weather History Graph

Search for Another Location

Airport:

Trip Planner

Search our weather history database for the weather conditions in past years. The results will help you decide how hot, cold, wet, or windy it might be!

Date:

Astronomy

Apr. 07, 2013 Rise Set
Actual Time 6:34 AM CDT 7:33 PM CDT
Civil Twilight 6:06 AM CDT 8:01 PM CDT
Nautical Twilight 5:33 AM CDT 8:34 PM CDT
Astronomical Twilight 4:59 AM CDT 9:09 PM CDT
Moon 4:53 AM CDT (4/7) 5:04 PM CDT (4/7)
Length of Visible Light 13h 54m
Length of Day
12h 58m
Waning Crescent, 8% of the Moon is Illuminated
Apr 7
Waning Crescent
Apr 10
New
Apr 18
First Quarter
Apr 25
Full
May 2
Last Quarter

Hourly Weather History & Observations

Time (CDT) Temp. Windchill Dew Point Humidity Pressure Visibility Wind Dir Wind Speed Gust Speed Precip Events Conditions
12:15 AM 49.1 °F - 43.2 °F 80% 29.74 in 10.0 mi WNW 12.7 mph 19.6 mph N/A   Clear
12:35 AM 48.6 °F - 42.8 °F 80% 29.75 in 10.0 mi WNW 13.8 mph 18.4 mph N/A   Clear
12:55 AM 46.2 °F 42.7 °F 42.1 °F 85% 29.76 in 10.0 mi WNW 6.9 mph - N/A   Clear
1:15 AM 45.9 °F 42.3 °F 41.7 °F 85% 29.77 in 10.0 mi West 6.9 mph - N/A   Clear
1:35 AM 44.4 °F 40.5 °F 41.0 °F 88% 29.79 in 7.0 mi West 6.9 mph - N/A   Clear
1:55 AM 43.2 °F 39.0 °F 41.9 °F 95% 29.79 in 7.0 mi West 6.9 mph - N/A   Clear
2:15 AM 42.3 °F 37.9 °F 40.5 °F 93% 29.79 in 7.0 mi West 6.9 mph - N/A   Clear
2:35 AM 42.8 °F 38.0 °F 40.5 °F 91% 29.79 in 7.0 mi West 8.1 mph - N/A   Clear
2:55 AM 41.0 °F 37.1 °F 39.2 °F 93% 29.79 in 7.0 mi West 5.8 mph - N/A   Clear
3:15 AM 39.7 °F 34.3 °F 38.5 °F 95% 29.80 in 5.0 mi West 8.1 mph - N/A   Clear
3:35 AM 40.5 °F 35.8 °F 39.0 °F 95% 29.81 in 7.0 mi West 6.9 mph - N/A   Clear
3:55 AM 40.6 °F 36.0 °F 38.8 °F 93% 29.81 in 7.0 mi WNW 6.9 mph - N/A   Clear
4:15 AM 39.9 °F 33.9 °F 38.3 °F 94% 29.82 in 7.0 mi West 9.2 mph - N/A   Clear
4:35 AM 38.5 °F 32.7 °F 37.2 °F 95% 29.84 in 5.0 mi West 8.1 mph - N/A   Clear
4:55 AM 38.3 °F 33.2 °F 37.4 °F 97% 29.85 in 5.0 mi West 6.9 mph - N/A   Clear
5:15 AM 38.5 °F 35.0 °F 37.6 °F 97% 29.85 in 5.0 mi West 4.6 mph - N/A   Clear
5:35 AM 38.8 °F 35.4 °F 37.9 °F 97% 29.85 in 5.0 mi West 4.6 mph - N/A   Clear
5:55 AM 37.6 °F 32.3 °F 36.9 °F 97% 29.87 in 5.0 mi West 6.9 mph - N/A   Clear
6:15 AM 37.4 °F 32.8 °F 36.7 °F 97% 29.87 in 5.0 mi West 5.8 mph - N/A   Clear
6:35 AM 36.9 °F 31.4 °F 36.5 °F 99% 29.89 in 3.0 mi West 6.9 mph - N/A   Clear
6:55 AM 37.4 °F 33.8 °F 37.4 °F 100% 29.89 in 3.0 mi West 4.6 mph - N/A   Clear
7:15 AM 37.4 °F 33.8 °F 36.7 °F 97% 29.90 in 2.5 mi West 4.6 mph - N/A   Clear
7:35 AM 37.9 °F 35.5 °F 37.8 °F 99% 29.91 in 2.5 mi West 3.5 mph - N/A   Clear
7:55 AM 40.3 °F 37.1 °F 39.4 °F 97% 29.91 in 3.0 mi West 4.6 mph - N/A   Clear
8:15 AM 42.1 °F 37.7 °F 40.6 °F 95% 29.91 in 4.0 mi WNW 6.9 mph - N/A   Clear
8:35 AM 43.0 °F 40.3 °F 40.3 °F 90% 29.92 in 5.0 mi NW 4.6 mph - N/A   Clear
8:55 AM 44.4 °F 41.2 °F 40.3 °F 85% 29.91 in 7.0 mi NNW 5.8 mph - N/A   Clear
9:15 AM 45.7 °F 44.4 °F 40.6 °F 83% 29.93 in 7.0 mi WNW 3.5 mph - N/A   Clear
9:35 AM 46.2 °F 45.0 °F 39.6 °F 78% 29.93 in 7.0 mi NW 3.5 mph - N/A   Clear
9:55 AM 47.7 °F - 40.5 °F 76% 29.94 in 10.0 mi North 3.5 mph - N/A   Clear
10:15 AM 49.3 °F - 40.6 °F 72% 29.94 in 10.0 mi Calm Calm - N/A   Clear
10:35 AM 50.5 °F - 41.0 °F 70% 29.94 in 10.0 mi Calm Calm - N/A   Clear
10:55 AM 52.0 °F - 41.2 °F 67% 29.95 in 10.0 mi Calm Calm - N/A   Clear
11:15 AM 52.9 °F - 41.5 °F 65% 29.96 in 10.0 mi Calm Calm - N/A   Clear
11:35 AM 54.0 °F - 41.5 °F 63% 29.95 in 10.0 mi SSW 4.6 mph - N/A   Clear
11:55 AM 54.5 °F - 40.6 °F 60% 29.96 in 10.0 mi Calm Calm - N/A   Clear
12:15 PM 56.5 °F - 40.3 °F 55% 29.96 in 10.0 mi Calm Calm - N/A   Clear
12:35 PM 57.2 °F - 40.5 °F 54% 29.94 in 10.0 mi Calm Calm - N/A   Clear
12:55 PM 58.5 °F - 40.5 °F 51% 29.94 in 10.0 mi Calm Calm - N/A   Clear
1:15 PM 59.7 °F - 41.0 °F 50% 29.94 in 10.0 mi NNW 3.5 mph - N/A   Clear
1:35 PM 59.2 °F - 40.8 °F 51% 29.93 in 10.0 mi North 3.5 mph - N/A   Clear
1:55 PM 59.9 °F - 40.3 °F 48% 29.93 in 10.0 mi Calm Calm - N/A   Clear
2:15 PM 61.9 °F - 42.1 °F 48% 29.92 in 10.0 mi North 3.5 mph - N/A   Clear
2:35 PM 61.5 °F - 40.6 °F 46% 29.92 in 10.0 mi ENE 3.5 mph - N/A   Clear
2:55 PM 61.7 °F - 41.0 °F 47% 29.91 in 10.0 mi Calm Calm - N/A   Clear
3:15 PM 63.5 °F - 42.1 °F 46% 29.91 in 10.0 mi NE 4.6 mph - N/A   Clear
3:35 PM 64.6 °F - 41.4 °F 43% 29.90 in 10.0 mi East 4.6 mph - N/A   Clear
3:55 PM 64.9 °F - 40.8 °F 41% 29.90 in 10.0 mi Calm Calm - N/A   Clear
4:15 PM 65.7 °F - 41.2 °F 41% 29.89 in 10.0 mi East 3.5 mph - N/A   Clear
4:35 PM 67.1 °F - 40.8 °F 38% 29.89 in 10.0 mi East 4.6 mph - N/A   Clear
4:55 PM 67.8 °F - 40.5 °F 37% 29.87 in 10.0 mi East 10.4 mph - N/A   Clear
5:15 PM 68.0 °F - 39.4 °F 35% 29.87 in 10.0 mi East 5.8 mph - N/A   Clear
5:35 PM 68.0 °F - 39.6 °F 35% 29.87 in 10.0 mi ESE 5.8 mph - N/A   Clear
5:55 PM 67.6 °F - 39.4 °F 36% 29.86 in 10.0 mi ESE 8.1 mph - N/A   Clear
6:15 PM 67.1 °F - 39.2 °F 36% 29.86 in 10.0 mi ESE 9.2 mph - N/A   Clear
6:35 PM 66.6 °F - 39.6 °F 37% 29.85 in 10.0 mi East 6.9 mph - N/A   Clear
6:55 PM 65.5 °F - 40.1 °F 39% 29.85 in 10.0 mi East 6.9 mph - N/A   Clear
7:15 PM 63.7 °F - 40.3 °F 42% 29.85 in 10.0 mi East 5.8 mph - N/A   Clear
7:35 PM 62.1 °F - 40.5 °F 45% 29.84 in 10.0 mi East 4.6 mph - N/A   Clear
7:55 PM 60.4 °F - 40.5 °F 48% 29.84 in 10.0 mi East 5.8 mph - N/A   Clear
8:15 PM 59.7 °F - 40.8 °F 50% 29.84 in 10.0 mi East 6.9 mph - N/A   Clear
8:35 PM 59.4 °F - 40.5 °F 50% 29.84 in 10.0 mi East 6.9 mph - N/A   Clear
8:55 PM 58.6 °F - 40.6 °F 51% 29.84 in 10.0 mi East 8.1 mph - N/A   Clear
9:15 PM 58.3 °F - 40.3 °F 51% 29.83 in 10.0 mi East 8.1 mph - N/A   Clear
9:35 PM 57.6 °F - 40.3 °F 53% 29.83 in 10.0 mi East 8.1 mph - N/A   Clear
9:55 PM 56.8 °F - 40.3 °F 54% 29.82 in 10.0 mi East 9.2 mph - N/A   Clear
10:15 PM 56.5 °F - 40.8 °F 56% 29.82 in 10.0 mi East 10.4 mph - N/A   Clear
10:35 PM 56.3 °F - 41.0 °F 57% 29.81 in 10.0 mi East 10.4 mph 17.3 mph N/A   Clear
10:55 PM 55.9 °F - 41.0 °F 57% 29.79 in 10.0 mi East 11.5 mph - N/A   Clear
11:15 PM 55.9 °F - 40.6 °F 56% 29.79 in 10.0 mi East 11.5 mph - N/A   Clear
11:35 PM 55.6 °F - 40.5 °F 57% 29.79 in 10.0 mi East 10.4 mph - N/A   Clear
11:55 PM 55.6 °F - 40.1 °F 56% 29.78 in 10.0 mi East 10.4 mph - N/A   Clear